Location: Stuttgart
(48.8069°N, 9.1544°E)
Time: 08:08:17
(UTC+01:00)

ISS - Pass Details

Date: 06 January 2018
Orbit: 402 x 407 km, 51.6° (Epoch: 24 January)

Event Time Altitude Azimuth Distance (km) Brightness Sun altitude
Exits shadow 06:45:38 28° 303° (WNW) 793 -2.9 -14.1°
Maximum altitude 06:47:02 50° 5° (N) 527 -3.4 -13.9°
Drops below altitude 10° 06:50:14 10° 82° (E) 1,463 0.0 -13.4°
Sets 06:52:23 0° 88° (E) 2,333 1.4 -13.1°
